Location: Gandikunta
(16.3784°N, 80.8378°E)
Time: 19:49:18
(UTC+00:00)

H-2A R/B - Pass Details

Date: 19 May 2025
Orbit: 730 x 830 km, 98.3° (Epoch: 21 June)

Event Time Altitude Azimuth Distance (km) Brightness Sun altitude
Rises 23:01:05 0° 346° (NNW) 3,364 5.5 -14.9°
Reaches altitude 10° 23:04:12 10° 328° (NNW) 2,428 4.5 -14.2°
Maximum altitude 23:07:38 17° 288° (WNW) 1,948 3.7 -13.4°
Enters shadow 23:09:11 16° 267° (W) 2,047 3.6 -13.1°
